period_start,C,m1,H,J0,J1,J2,J3,J4,J5,JA,JB,JC,JD,JJ,JK,JN,#
2017-11-05 00:00:38,0.05,0.28,0.00,18.16,21.54,24.56,14.22,46.30,1018.15,2052.00,3484.59,3046.99,3486.70,600.03,606.77,7.18,0000 0000 0000 0000 000000
2017-11-05 00:05:39,0.05,0.28,0.00,18.14,21.54,24.62,14.20,46.28,1018.16,2052.00,3483.33,3046.10,3485.71,600.01,606.91,7.23,0000 0000 0000 0000 000000
2017-11-05 00:10:41,0.05,0.28,0.00,18.18,21.54,24.57,14.12,46.25,1018.21,2052.00,3482.04,3045.21,3484.73,599.52,606.35,7.28,0000 0000 0000 0000 000000
2017-11-05 00:15:42,0.05,0.29,0.00,18.19,21.54,24.60,14.19,46.32,1018.26,2052.00,3480.81,3044.49,3483.80,600.03,606.90,7.33,0000 0000 0000 0000 000000
2017-11-05 00:20:43,0.05,0.29,0.00,18.19,21.54,24.57,14.25,46.29,1018.23,2052.00,3479.58,3043.65,3482.82,600.02,606.90,7.38,0000 0000 0000 0000 000000
2017-11-05 00:25:44,0.03,0.29,0.00,18.21,21.55,24.56,14.21,46.34,1018.11,2052.00,3478.47,3042.92,3481.93,600.07,606.77,7.43,0000 0000 0000 0000 000000
2017-11-05 00:30:46,0.05,0.29,0.00,18.22,21.57,24.57,14.14,46.28,1018.08,2052.00,3477.30,3042.09,3481.01,600.06,606.75,7.48,0000 0000 0000 0000 000000
2017-11-05 00:35:47,0.05,0.30,0.00,18.20,21.57,24.58,14.13,46.38,1018.08,2052.00,3476.12,3041.33,3480.13,599.84,606.51,7.53,0000 0000 0000 0000 000000
2017-11-05 00:40:49,0.05,0.30,0.00,18.24,21.57,24.64,14.18,46.39,1018.08,2052.00,3474.91,3040.56,3479.23,600.04,606.73,7.58,0000 0000 0000 0000 000000
2017-11-05 00:45:50,0.05,0.30,0.00,18.26,21.59,24.62,14.22,46.32,1018.08,2052.00,3473.62,3039.78,3478.18,599.99,606.61,7.63,0000 0000 0000 0000 000000
2017-11-05 00:50:51,0.07,0.31,0.00,18.25,21.59,24.60,14.17,46.45,1018.08,2052.00,3472.18,3038.67,3477.02,599.97,606.59,7.68,0000 0000 0000 0000 000000
2017-11-05 00:55:53,0.07,0.31,0.00,18.26,21.59,24.62,14.24,46.36,1018.08,2052.00,3470.59,3037.59,3475.81,600.15,606.76,7.73,0000 0000 0000 0000 000000
2017-11-05 01:00:54,0.15,0.31,0.00,18.25,21.60,24.63,14.11,46.26,1018.08,2052.00,3467.70,3035.90,3473.92,599.65,606.26,7.78,0000 0000 0000 0000 000000
2017-11-05 01:05:55,0.19,0.33,0.00,18.26,21.62,24.65,14.21,46.43,1018.08,2051.98,3462.28,3033.06,3470.72,600.13,606.77,7.83,0000 0000 0000 0000 000000
2017-11-05 01:10:56,0.07,0.33,0.00,18.28,21.62,24.68,14.25,46.39,1018.08,2051.97,3459.96,3031.79,3469.15,600.14,606.68,7.88,0000 0000 0000 0000 000000
2017-11-05 01:15:58,0.06,0.33,0.00,18.27,21.62,24.65,14.18,46.34,1018.08,2051.97,3458.58,3030.81,3468.05,599.75,606.30,7.93,0000 0000 0000 0000 000000
2017-11-05 01:20:59,0.07,0.34,0.00,18.28,21.64,24.65,14.14,46.33,1018.05,2051.97,3456.87,3029.76,3466.85,599.73,606.20,7.98,0000 0000 0000 0000 000000
2017-11-05 01:26:00,0.07,0.34,0.00,18.30,21.64,24.65,14.12,46.38,1017.96,2051.97,3455.31,3028.63,3465.61,599.87,606.31,8.03,0000 0000 0000 0000 000000
2017-11-05 01:31:01,0.07,0.34,0.00,18.30,21.64,24.70,14.16,46.39,1017.77,2051.96,3453.35,3027.46,3464.23,599.75,606.12,8.08,0000 0000 0000 0000 000000
2017-11-05 01:36:03,0.08,0.35,0.00,18.30,21.66,24.70,14.20,46.36,1017.71,2051.96,3451.31,3026.19,3462.74,600.19,606.47,8.13,0000 0000 0000 0000 000000
2017-11-05 01:41:04,0.09,0.35,0.00,18.32,21.67,24.67,14.24,46.29,1017.80,2051.94,3449.19,3024.77,3461.20,600.34,606.57,8.18,0000 0000 0000 0000 000000
2017-11-05 01:46:05,0.08,0.36,0.00,18.32,21.67,24.69,14.15,46.33,1017.84,2051.85,3447.06,3023.54,3459.64,599.59,606.00,8.23,0000 0000 0000 0000 000000
2017-11-05 01:51:06,0.09,0.36,0.00,18.33,21.68,24.64,14.14,46.36,1017.91,2051.82,3444.92,3022.08,3458.02,599.80,606.19,8.28,0000 0000 0000 0000 000000
2017-11-05 01:56:08,0.06,0.37,0.00,18.36,21.69,24.75,14.23,46.38,1017.92,2051.53,3442.84,3020.66,3456.42,600.18,606.54,8.33,0000 0000 0000 0000 000000
2017-11-05 02:01:09,0.05,0.37,0.00,18.35,21.69,24.70,14.17,46.38,1017.89,2051.17,3440.87,3019.37,3454.88,600.05,606.40,8.38,0000 0000 0000 0000 000000
2017-11-05 02:06:10,0.08,0.37,0.00,18.35,21.70,24.68,14.08,46.37,1017.94,2051.05,3438.93,3018.01,3453.37,599.44,605.78,8.44,0000 0000 0000 0000 000000
2017-11-05 02:11:12,0.09,0.38,0.00,18.37,21.72,24.70,14.15,46.34,1017.93,2051.03,3436.92,3016.66,3451.86,599.90,606.17,8.49,0000 0000 0000 0000 000000
2017-11-05 02:16:13,0.08,0.38,0.00,18.36,21.72,24.72,14.19,46.33,1017.99,2051.02,3434.96,3015.45,3450.42,600.13,606.44,8.54,0000 0000 0000 0000 000000
2017-11-05 02:21:14,0.09,0.39,0.00,18.37,21.72,24.72,14.15,46.39,1017.95,2051.01,3432.94,3014.09,3448.82,599.94,606.21,8.59,0000 0000 0000 0000 000000
2017-11-05 02:26:15,0.10,0.39,0.00,18.38,21.72,24.73,14.15,46.32,1017.88,2051.01,3430.75,3012.66,3447.34,599.76,605.97,8.64,0000 0000 0000 0000 000000
2017-11-05 02:31:17,0.09,0.40,0.00,18.38,21.72,24.73,14.22,46.34,1017.82,2051.02,3428.52,3011.27,3445.69,600.11,606.32,8.69,0000 0000 0000 0000 000000
2017-11-05 02:36:18,0.10,0.40,0.00,18.40,21.74,24.72,14.22,46.38,1017.76,2051.00,3426.36,3009.76,3444.10,600.18,606.21,8.74,0000 0000 0000 0000 000000
2017-11-05 02:41:19,0.08,0.41,0.00,18.39,21.74,24.77,14.18,46.45,1017.67,2051.01,3424.32,3008.51,3442.67,599.82,605.90,8.79,0000 0000 0000 0000 000000
2017-11-05 02:46:21,0.08,0.41,0.00,18.39,21.74,24.77,14.20,46.38,1017.62,2051.01,3422.43,3007.35,3441.06,600.08,606.09,8.84,0000 0000 0000 0000 000000
2017-11-05 02:51:22,0.09,0.41,0.00,18.41,21.74,24.81,13.96,46.35,1017.61,2051.00,3420.32,3006.00,3439.54,599.62,605.65,8.89,0000 0000 0000 0000 000000
2017-11-05 02:56:23,0.08,0.42,0.00,18.41,21.74,24.75,14.17,46.45,1017.60,2051.00,3418.46,3004.78,3438.03,600.14,606.07,8.94,0000 0000 0000 0000 000000
2017-11-05 03:01:25,0.08,0.42,0.00,18.42,21.75,24.80,14.18,46.34,1017.60,2051.00,3416.70,3003.58,3436.70,599.91,606.01,8.99,0000 0000 0000 0000 000000
2017-11-05 03:06:26,0.07,0.43,0.00,18.43,21.76,24.80,14.13,46.40,1017.60,2051.00,3414.90,3002.47,3435.44,599.89,605.84,9.04,0000 0000 0000 0000 000000
2017-11-05 03:11:28,0.09,0.43,0.00,18.44,21.77,24.78,14.15,46.43,1017.59,2051.00,3412.73,3001.06,3433.82,600.09,606.10,9.09,0000 0000 0000 0000 000000
2017-11-05 03:16:29,0.12,0.44,0.00,18.43,21.77,24.79,14.26,46.38,1017.59,2051.00,3410.07,2999.43,3432.04,599.98,605.85,9.14,0000 0000 0000 0000 000000
2017-11-05 03:21:30,0.16,0.44,0.00,18.44,21.77,24.82,14.14,46.33,1017.59,2051.00,3406.41,2997.19,3429.52,599.79,605.80,9.19,0000 0000 0000 0000 000000
2017-11-05 03:26:32,0.16,0.45,0.00,18.46,21.77,24.82,14.18,46.39,1017.59,2051.00,3402.55,2994.75,3426.81,599.92,605.87,9.24,0000 0000 0000 0000 000000
2017-11-05 03:31:33,0.17,0.46,0.00,18.47,21.77,24.85,14.21,46.51,1017.59,2051.00,3398.71,2992.29,3424.02,600.46,606.29,9.29,0000 0000 0000 0000 000000
2017-11-05 03:36:34,0.17,0.47,0.00,18.45,21.77,24.81,14.14,46.42,1017.59,2051.00,3394.84,2989.83,3421.20,599.95,605.75,9.34,0000 0000 0000 0000 000000
2017-11-05 03:41:36,0.18,0.48,0.00,18.43,21.79,24.85,14.18,46.47,1017.59,2051.00,3390.77,2987.22,3418.30,599.89,605.84,9.39,0000 0000 0000 0000 000000
2017-11-05 03:46:37,0.18,0.49,0.00,18.44,21.79,24.87,14.11,46.33,1017.59,2050.99,3386.46,2984.51,3415.28,599.85,605.78,9.44,0000 0000 0000 0000 000000
2017-11-05 03:51:38,0.18,0.50,0.00,18.45,21.79,24.88,14.16,46.33,1017.59,2050.99,3382.12,2981.90,3412.33,600.11,606.05,9.49,0000 0000 0000 0000 000000
2017-11-05 03:56:39,0.17,0.51,0.00,18.46,21.79,24.87,14.10,46.34,1017.59,2050.98,3377.90,2979.38,3409.45,599.77,605.69,9.54,0000 0000 0000 0000 000000
2017-11-05 04:01:40,0.17,0.52,0.00,18.45,21.79,24.85,14.12,46.27,1017.59,2050.97,3373.75,2976.96,3406.70,600.10,605.95,9.59,0000 0000 0000 0000 000000
2017-11-05 04:06:42,0.15,0.52,0.00,18.47,21.80,24.85,14.05,46.37,1017.60,2050.97,3369.99,2974.73,3404.16,599.54,605.46,9.64,0000 0000 0000 0000 000000
2017-11-05 04:11:43,0.13,0.53,0.00,18.48,21.81,24.86,14.19,46.42,1017.60,2050.98,3366.86,2972.73,3401.94,600.14,606.00,9.69,0000 0000 0000 0000 000000
2017-11-05 04:16:44,0.11,0.54,0.00,18.48,21.82,24.87,14.17,46.39,1017.59,2050.96,3364.17,2971.09,3400.04,599.93,605.81,9.74,0000 0000 0000 0000 000000
2017-11-05 04:21:45,0.12,0.54,0.00,18.47,21.82,24.92,14.10,46.38,1017.59,2050.95,3361.13,2969.26,3397.91,599.66,605.53,9.79,0000 0000 0000 0000 000000
2017-11-05 04:26:46,0.14,0.55,0.00,18.44,21.82,24.93,14.19,46.38,1017.59,2050.89,3357.62,2967.26,3395.64,599.85,605.80,9.84,0000 0000 0000 0000 000000
2017-11-05 04:31:47,0.15,0.56,0.00,18.45,21.82,24.88,14.15,46.38,1017.59,2050.91,3354.03,2965.25,3393.35,599.72,605.71,9.89,0000 0000 0000 0000 000000
2017-11-05 04:36:48,0.15,0.57,0.00,18.47,21.82,24.88,14.23,46.38,1017.60,2050.95,3350.40,2963.22,3391.14,600.24,605.96,9.94,0000 0000 0000 0000 000000
2017-11-05 04:41:49,0.14,0.57,0.00,18.45,21.82,24.88,14.18,46.44,1017.60,2050.95,3346.83,2961.12,3388.81,600.03,606.00,9.99,0000 0000 0000 0000 000000
2017-11-05 04:46:50,0.14,0.58,0.00,18.47,21.83,24.90,14.18,46.42,1017.59,2050.96,3343.47,2959.16,3386.51,599.89,605.77,10.04,0000 0000 0000 0000 000000
2017-11-05 04:51:52,0.12,0.59,0.00,18.46,21.84,24.92,14.21,46.33,1017.59,2050.92,3340.27,2957.27,3384.35,600.26,606.20,10.09,0000 0000 0000 0000 000000
2017-11-05 04:56:53,0.10,0.59,0.00,18.45,21.84,24.87,14.13,46.37,1017.60,2050.94,3337.85,2955.76,3382.61,599.83,605.76,10.14,0000 0000 0000 0000 000000
2017-11-05 05:01:54,0.07,0.60,0.00,18.47,21.84,24.89,14.20,46.34,1017.59,2050.79,3335.88,2954.50,3381.12,600.09,605.95,10.19,0000 0000 0000 0000 000000
2017-11-05 05:06:56,0.06,0.60,0.00,18.44,21.84,24.93,14.12,46.38,1017.59,2050.64,3334.07,2953.20,3379.64,599.80,605.73,10.24,0000 0000 0000 0000 000000
2017-11-05 05:11:57,0.09,0.61,0.00,18.44,21.84,24.92,14.17,46.30,1017.59,2050.63,3332.32,2951.94,3378.27,600.07,606.06,10.29,0000 0000 0000 0000 000000
2017-11-05 05:16:58,0.08,0.61,0.00,18.44,21.84,24.95,14.14,46.39,1017.59,2050.67,3330.51,2950.69,3376.77,599.86,605.82,10.34,0000 0000 0000 0000 000000
2017-11-05 05:22:00,0.08,0.61,0.00,18.44,21.84,24.91,14.16,46.33,1017.59,2050.65,3328.71,2949.48,3375.44,600.04,605.97,10.39,0000 0000 0000 0000 000000
2017-11-05 05:27:00,0.09,0.62,0.00,18.43,21.84,24.90,14.21,46.39,1017.59,2050.79,3327.07,2948.32,3373.97,599.82,605.77,10.44,0000 0000 0000 0000 000000
2017-11-05 05:32:01,0.07,0.62,0.00,18.45,21.84,24.91,14.14,46.32,1017.59,2050.57,3325.28,2946.96,3372.49,599.67,605.59,10.49,0000 0000 0000 0000 000000
2017-11-05 05:37:03,0.07,0.63,0.00,18.43,21.84,24.89,14.16,46.39,1017.59,2050.35,3323.42,2945.63,3370.97,599.94,605.83,10.54,0000 0000 0000 0000 000000
2017-11-05 05:42:04,0.09,0.63,0.00,18.42,21.83,24.89,14.14,46.41,1017.59,2050.44,3321.59,2944.39,3369.55,600.14,606.17,10.59,0000 0000 0000 0000 000000
2017-11-05 05:47:05,0.06,0.64,0.00,18.43,21.82,24.91,14.12,46.37,1017.59,2050.31,3319.80,2943.16,3368.03,599.48,605.43,10.64,0000 0000 0000 0000 000000
2017-11-05 05:52:07,0.10,0.64,0.00,18.43,21.82,24.92,14.17,46.37,1017.59,2050.41,3318.07,2941.94,3366.65,600.13,606.07,10.69,0000 0000 0000 0000 000000
2017-11-05 05:57:08,0.09,0.65,0.00,18.41,21.82,24.94,14.19,46.37,1017.59,2050.55,3316.31,2940.67,3365.26,599.85,605.85,10.75,0000 0000 0000 0000 000000
2017-11-05 06:02:09,0.08,0.65,0.00,18.43,21.82,24.91,14.16,46.28,1017.59,2050.64,3314.54,2939.52,3363.78,599.77,605.72,10.80,0000 0000 0000 0000 000000
2017-11-05 06:07:10,0.08,0.65,0.00,18.41,21.82,24.91,14.15,46.31,1017.59,2050.54,3312.75,2938.24,3362.41,600.05,606.05,10.85,0000 0000 0000 0000 000000
2017-11-05 06:12:12,0.06,0.66,0.00,18.39,21.82,24.89,14.13,46.33,1017.59,2050.52,3311.12,2936.95,3360.95,600.03,606.05,10.90,0000 0000 0000 0000 000000
2017-11-05 06:17:13,0.10,0.66,0.00,18.40,21.82,24.90,14.25,46.38,1017.59,2050.51,3309.30,2935.72,3359.52,600.50,606.50,10.95,0000 0000 0000 0000 000000
2017-11-05 06:22:14,0.07,0.67,0.00,18.39,21.80,24.88,14.12,46.27,1017.59,2050.35,3307.43,2934.38,3357.98,599.81,605.83,11.00,0000 0000 0000 0000 000000
2017-11-05 06:27:15,0.10,0.67,0.00,18.38,21.80,24.93,14.16,46.35,1017.59,2050.63,3305.64,2933.16,3356.60,600.21,606.29,11.05,0000 0000 0000 0000 000000
2017-11-05 06:32:16,0.08,0.68,0.00,18.39,21.79,24.89,14.17,46.38,1017.59,2050.50,3303.84,2931.83,3355.03,600.21,606.20,11.10,0000 0000 0000 0000 000000
2017-11-05 06:37:18,0.07,0.68,0.00,18.38,21.79,24.90,14.12,46.37,1017.59,2050.41,3301.97,2930.50,3353.56,599.76,605.84,11.15,0000 0000 0000 0000 000000
2017-11-05 06:42:19,0.09,0.68,0.00,18.37,21.79,24.86,14.19,46.35,1017.59,2050.46,3300.19,2929.27,3352.13,600.03,606.06,11.20,0000 0000 0000 0000 000000
2017-11-05 06:47:20,0.10,0.69,0.00,18.36,21.77,24.90,14.12,46.29,1017.59,2050.51,3298.43,2928.00,3350.65,599.99,606.18,11.25,0000 0000 0000 0000 000000
2017-11-05 06:52:21,0.11,0.69,0.00,18.34,21.77,24.91,14.19,46.36,1017.59,2050.84,3296.73,2926.82,3349.43,599.86,606.00,11.30,0000 0000 0000 0000 000000
2017-11-05 06:57:22,0.07,0.70,0.00,18.33,21.77,24.94,14.26,46.48,1017.59,2050.72,3295.03,2925.57,3347.93,600.16,606.31,11.35,0000 0000 0000 0000 000000
2017-11-05 07:02:24,0.09,0.70,0.00,18.34,21.77,24.92,14.27,46.40,1017.59,2050.81,3293.27,2924.37,3346.55,600.47,606.69,11.40,0000 0000 0000 0000 000000
2017-11-05 07:07:25,0.08,0.71,0.00,18.32,21.76,24.94,14.19,46.32,1017.59,2050.87,3291.55,2923.19,3345.16,599.79,606.07,11.45,0000 0000 0000 0000 000000
2017-11-05 07:12:26,0.09,0.71,0.00,18.32,21.75,24.87,14.21,46.35,1017.59,2050.89,3289.81,2921.96,3343.80,599.80,606.01,11.50,0000 0000 0000 0000 000000
2017-11-05 07:17:27,0.07,0.72,0.00,18.30,21.74,24.88,14.25,46.30,1017.59,2050.92,3288.29,2920.86,3342.52,600.39,606.62,11.55,0000 0000 0000 0000 000000
2017-11-05 07:22:29,0.08,0.72,0.00,18.29,21.74,24.89,14.21,46.27,1017.59,2050.94,3286.71,2919.79,3341.28,600.33,606.56,11.60,0000 0000 0000 0000 000000
2017-11-05 07:27:30,0.07,0.72,0.00,18.28,21.74,24.92,14.15,46.39,1017.59,2050.93,3285.18,2918.64,3339.89,599.56,605.87,11.65,0000 0000 0000 0000 000000
2017-11-05 07:32:32,0.07,0.73,0.00,18.25,21.73,24.91,14.16,46.33,1017.60,2050.93,3283.61,2917.53,3338.63,599.95,606.30,11.70,0000 0000 0000 0000 000000
2017-11-05 07:37:33,0.08,0.73,0.00,18.24,21.72,24.86,14.26,46.44,1017.60,2050.92,3281.90,2916.36,3337.26,600.14,606.47,11.75,0000 0000 0000 0000 000000
2017-11-05 07:42:34,0.07,0.74,0.00,18.26,21.72,24.87,14.22,46.43,1017.64,2050.96,3280.30,2915.25,3335.99,600.23,606.49,11.80,0000 0000 0000 0000 000000
2017-11-05 07:47:35,0.08,0.74,0.00,18.24,21.72,24.87,14.19,46.33,1017.61,2050.96,3278.68,2914.09,3334.74,600.20,606.55,11.85,0000 0000 0000 0000 000000
2017-11-05 07:52:37,0.07,0.74,0.00,18.22,21.71,24.84,14.15,46.38,1017.60,2050.97,3277.02,2912.98,3333.47,599.89,606.16,11.90,0000 0000 0000 0000 000000
2017-11-05 07:57:38,0.07,0.75,0.00,18.21,21.70,24.91,14.25,46.52,1017.59,2050.96,3275.50,2911.95,3332.13,600.09,606.44,11.95,0000 0000 0000 0000 000000
2017-11-05 08:02:40,0.07,0.75,0.00,18.21,21.69,24.89,14.18,46.43,1017.59,2050.96,3274.25,2910.88,3330.73,599.59,606.19,12.00,0000 0000 0000 0000 000000
2017-11-05 08:07:41,0.06,0.76,0.00,18.19,21.69,24.87,14.18,46.38,1017.59,2050.93,3272.89,2909.91,3329.61,600.16,606.61,12.05,0000 0000 0000 0000 000000
2017-11-05 08:12:42,0.06,0.76,0.00,18.19,21.68,24.90,14.17,46.39,1017.59,2050.95,3271.51,2908.95,3328.54,599.92,606.38,12.10,0000 0000 0000 0000 000000
2017-11-05 08:17:44,0.06,0.76,0.00,18.16,21.67,24.87,14.20,46.30,1017.60,2050.94,3270.00,2907.91,3327.37,600.07,606.62,12.15,0000 0000 0000 0000 000000
2017-11-05 08:22:45,0.08,0.77,0.00,18.15,21.67,24.90,14.17,46.31,1017.61,2050.97,3268.45,2906.80,3326.21,599.71,606.26,12.20,0000 0000 0000 0000 000000
2017-11-05 08:27:46,0.07,0.77,0.00,18.18,21.65,24.92,14.16,46.23,1017.61,2050.96,3266.97,2905.74,3324.84,600.25,606.70,12.25,0000 0000 0000 0000 000000
2017-11-05 08:32:48,0.07,0.77,0.00,18.17,21.64,24.82,14.15,46.21,1017.62,2050.93,3265.37,2904.71,3323.80,599.71,606.20,12.30,0000 0000 0000 0000 000000
2017-11-05 08:37:50,0.09,0.78,0.00,18.15,21.63,24.83,14.15,46.27,1017.61,2050.98,3263.37,2903.48,3322.60,599.73,606.29,12.35,0000 0000 0000 0000 000000
2017-11-05 08:42:51,0.13,0.78,0.00,18.14,21.62,24.82,14.18,46.17,1017.68,2050.99,3260.74,2901.72,3320.51,600.03,606.64,12.40,0000 0000 0000 0000 000000
2017-11-05 08:47:52,0.23,0.79,0.00,18.14,21.61,24.78,14.16,46.13,1017.71,2050.98,3255.58,2899.02,3317.29,599.69,606.35,12.45,0000 0000 0000 0000 000000
2017-11-05 08:52:54,0.11,0.80,0.00,18.12,21.59,24.78,14.21,46.13,1017.62,2050.98,3252.34,2897.17,3315.20,600.21,606.81,12.50,0000 0000 0000 0000 000000
2017-11-05 08:57:55,0.10,0.81,0.00,18.11,21.59,24.83,14.13,46.16,1017.63,2050.97,3250.01,2895.74,3313.62,599.40,606.03,12.55,0000 0000 0000 0000 000000
2017-11-05 09:02:56,0.08,0.81,0.00,18.08,21.57,24.79,14.15,46.14,1017.61,2050.98,3248.12,2894.50,3312.16,599.86,606.61,12.60,0000 0000 0000 0000 000000
2017-11-05 09:07:57,0.09,0.82,0.00,18.06,21.56,24.70,14.18,46.13,1017.61,2050.98,3246.18,2893.22,3310.60,600.00,606.74,12.65,0000 0000 0000 0000 000000
2017-11-05 09:12:58,0.09,0.82,0.00,18.06,21.54,24.77,14.19,46.16,1017.61,2050.98,3244.24,2891.91,3309.12,600.22,607.01,12.70,0000 0000 0000 0000 000000
2017-11-05 09:18:00,0.10,0.83,0.00,18.05,21.54,24.73,14.16,46.13,1017.62,2050.99,3242.02,2890.53,3307.59,600.11,606.84,12.75,0000 0000 0000 0000 000000
2017-11-05 09:23:01,0.08,0.83,0.00,18.02,21.52,24.74,14.18,46.26,1017.72,2050.99,3239.97,2889.21,3306.11,599.99,606.93,12.80,0000 0000 0000 0000 000000
2017-11-05 09:28:02,0.11,0.84,0.00,18.03,21.51,24.69,14.23,46.20,1017.80,2050.99,3237.85,2887.82,3304.57,599.90,606.79,12.85,0000 0000 0000 0000 000000
2017-11-05 09:33:04,0.08,0.84,0.00,18.02,21.49,24.67,14.18,46.23,1017.80,2050.99,3235.80,2886.62,3303.33,600.05,606.99,12.90,0000 0000 0000 0000 000000
2017-11-05 09:38:05,0.08,0.85,0.00,18.00,21.48,24.69,14.18,46.23,1017.89,2050.99,3233.97,2885.50,3302.03,600.36,607.40,12.95,0000 0000 0000 0000 000000
2017-11-05 09:43:06,0.09,0.85,0.00,17.99,21.47,24.71,14.28,46.43,1017.92,2051.01,3231.94,2884.16,3300.56,600.27,607.30,13.00,0000 0000 0000 0000 000000
2017-11-05 09:48:07,0.10,0.86,0.00,17.96,21.46,24.65,14.19,46.21,1017.96,2051.00,3230.07,2882.81,3298.86,599.91,606.93,13.05,0000 0000 0000 0000 000000
2017-11-05 09:53:09,0.09,0.86,0.00,17.96,21.44,24.64,14.26,46.22,1017.99,2051.00,3228.06,2881.54,3297.30,600.07,607.27,13.10,0000 0000 0000 0000 000000
2017-11-05 09:58:10,0.09,0.87,0.00,17.94,21.43,24.65,14.24,46.29,1018.03,2051.01,3226.03,2880.19,3295.74,600.24,607.51,13.15,0000 0000 0000 0000 000000
2017-11-05 10:03:11,0.09,0.87,0.00,17.93,21.42,24.67,14.23,46.30,1018.01,2051.01,3223.93,2878.95,3294.39,600.13,607.41,13.20,0000 0000 0000 0000 000000
2017-11-05 10:08:12,0.09,0.87,0.00,17.90,21.41,24.61,14.20,46.29,1018.01,2051.04,3222.04,2877.80,3293.02,600.18,607.58,13.26,0000 0000 0000 0000 000000
2017-11-05 10:13:14,0.11,0.88,0.00,17.89,21.39,24.63,14.22,46.27,1018.03,2051.14,3220.07,2876.54,3291.61,600.19,607.58,13.31,0000 0000 0000 0000 000000
2017-11-05 10:18:15,0.12,0.89,0.00,17.87,21.38,24.56,14.25,46.29,1018.07,2051.30,3217.68,2874.95,3289.86,600.02,607.41,13.36,0000 0000 0000 0000 000000
2017-11-05 10:23:16,0.10,0.89,0.00,17.85,21.37,24.59,14.22,46.32,1018.06,2051.27,3215.53,2873.48,3287.98,600.12,607.53,13.41,0000 0000 0000 0000 000000
2017-11-05 10:28:18,0.08,0.90,0.00,17.85,21.35,24.62,14.23,46.23,1018.06,2051.19,3213.62,2872.19,3286.36,599.78,607.40,13.46,0000 0000 0000 0000 000000
2017-11-05 10:33:19,0.15,0.90,0.00,17.83,21.34,24.56,14.26,46.27,1018.08,2051.50,3211.54,2870.85,3284.91,600.12,607.55,13.51,0000 0000 0000 0000 000000
2017-11-05 10:38:20,0.10,0.91,0.00,17.80,21.32,24.59,14.21,46.30,1018.08,2051.62,3209.27,2869.35,3283.23,600.17,607.74,13.56,0000 0000 0000 0000 000000
2017-11-05 10:43:21,0.14,0.92,0.00,17.78,21.31,24.62,14.25,46.33,1018.08,2051.83,3206.81,2867.77,3281.49,600.38,608.07,13.61,0000 0000 0000 0000 000000
2017-11-05 10:48:22,0.12,0.92,0.00,17.77,21.29,24.53,14.23,46.33,1018.08,2051.94,3204.32,2866.17,3279.69,600.41,608.06,13.66,0000 0000 0000 0000 000000
2017-11-05 10:53:24,0.12,0.93,0.00,17.77,21.28,24.52,14.27,46.44,1018.08,2051.95,3201.93,2864.58,3277.96,600.30,607.86,13.71,0000 0000 0000 0000 000000
2017-11-05 10:58:25,0.12,0.93,0.00,17.75,21.27,24.52,14.24,46.38,1018.09,2051.98,3199.54,2862.98,3276.14,600.07,607.70,13.76,0000 0000 0000 0000 000000
2017-11-05 11:03:27,0.15,0.94,0.00,17.70,21.25,24.48,14.24,46.30,1018.10,2051.98,3196.61,2860.97,3273.78,599.94,607.72,13.81,0000 0000 0000 0000 000000
2017-11-05 11:08:28,0.16,0.95,0.00,17.72,21.24,24.49,14.21,46.30,1018.11,2051.98,3193.25,2858.78,3271.30,599.68,607.44,13.86,0000 0000 0000 0000 000000
2017-11-05 11:13:29,0.15,0.96,0.00,17.70,21.22,24.45,14.26,46.34,1018.10,2051.99,3189.99,2856.66,3268.95,600.29,608.13,13.91,0000 0000 0000 0000 000000
2017-11-05 11:18:30,0.14,0.96,0.00,17.66,21.21,24.43,14.21,46.30,1018.13,2051.99,3186.88,2854.69,3266.74,600.10,607.98,13.96,0000 0000 0000 0000 000000
2017-11-05 11:23:32,0.14,0.97,0.00,17.66,21.19,24.49,14.22,46.30,1018.11,2051.98,3184.00,2852.74,3264.61,599.97,607.84,14.01,0000 0000 0000 0000 000000
2017-11-05 11:28:33,0.13,0.98,0.00,17.64,21.18,24.45,14.21,46.27,1018.11,2051.99,3181.24,2850.92,3262.65,599.60,607.47,14.06,0000 0000 0000 0000 000000
2017-11-05 11:33:34,0.13,0.98,0.00,17.62,21.17,24.42,14.20,46.29,1018.10,2051.99,3178.35,2849.14,3260.68,599.88,607.83,14.11,0000 0000 0000 0000 000000
2017-11-05 11:38:35,0.13,0.99,0.00,17.60,21.14,24.46,14.22,46.27,1018.09,2051.99,3175.39,2847.21,3258.58,599.94,607.92,14.16,0000 0000 0000 0000 000000
2017-11-05 11:43:37,0.13,1.00,0.00,17.60,21.13,24.39,14.27,46.33,1018.09,2051.99,3172.44,2845.40,3256.58,600.12,608.09,14.21,0000 0000 0000 0000 000000
2017-11-05 11:48:38,0.14,1.01,0.00,17.57,21.12,24.32,14.15,46.26,1018.09,2052.00,3169.51,2843.42,3254.40,599.96,608.05,14.26,0000 0000 0000 0000 000000
2017-11-05 11:53:39,0.12,1.01,0.00,17.56,21.10,24.37,14.28,46.29,1018.09,2052.02,3167.03,2841.72,3252.40,600.11,608.13,14.31,0000 0000 0000 0000 000000
2017-11-05 11:58:41,0.11,1.02,0.00,17.54,21.09,24.35,14.25,46.44,1018.08,2052.02,3164.41,2840.12,3250.48,599.93,608.05,14.36,0000 0000 0000 0000 000000
2017-11-05 12:03:42,0.14,1.03,0.00,17.54,21.07,24.33,14.29,46.42,1018.09,2052.14,3161.82,2838.47,3248.65,600.26,608.51,14.41,0000 0000 0000 0000 000000
2017-11-05 12:08:44,0.09,1.03,0.00,17.52,21.05,24.34,14.23,46.42,1018.08,2052.08,3159.99,2836.90,3246.62,600.02,608.21,14.46,0000 0000 0000 0000 000000
2017-11-05 12:13:45,0.11,1.04,0.00,17.48,21.04,24.33,14.18,46.31,1018.08,2052.03,3157.39,2835.48,3245.02,599.95,608.17,14.51,0000 0000 0000 0000 000000
2017-11-05 12:18:46,0.13,1.04,0.00,17.46,21.02,24.33,14.28,46.31,1018.08,2052.19,3155.00,2833.93,3243.30,599.94,608.21,14.56,0000 0000 0000 0000 000000
2017-11-05 12:23:47,0.11,1.05,0.00,17.45,21.00,24.31,14.29,46.33,1018.08,2052.18,3152.82,2832.49,3241.55,600.14,608.54,14.61,0000 0000 0000 0000 000000
2017-11-05 12:28:49,0.11,1.05,0.00,17.42,20.99,24.27,14.30,46.43,1018.08,2052.15,3150.45,2830.84,3239.71,600.04,608.42,14.66,0000 0000 0000 0000 000000
2017-11-05 12:33:51,0.13,1.06,0.00,17.40,20.97,24.25,14.20,46.44,1018.08,2052.34,3148.09,2829.39,3238.07,599.91,608.31,14.71,0000 0000 0000 0000 000000
2017-11-05 12:38:51,0.15,1.07,0.00,17.39,20.94,24.25,14.25,46.37,1018.07,2052.77,3145.56,2827.82,3236.40,599.95,608.35,14.76,0000 0000 0000 0000 000000
2017-11-05 12:43:53,0.13,1.08,0.00,17.37,20.92,24.22,14.22,46.46,1017.89,2052.94,3142.97,2826.23,3234.63,600.10,608.57,14.81,0000 0000 0000 0000 000000
2017-11-05 12:48:54,0.12,1.08,0.00,17.34,20.90,24.20,14.27,46.38,1017.64,2052.97,3140.34,2824.62,3232.92,599.89,608.15,14.86,0000 0000 0000 0000 000000
2017-11-05 12:53:55,0.10,1.09,0.00,17.33,20.88,24.25,14.29,46.52,1017.62,2052.97,3138.25,2823.16,3231.07,599.74,607.95,14.91,0000 0000 0000 0000 000000